Location: Chowchilla Mountain
(37.5599°N, 119.7546°W)
Time: 22:57:46
(UTC+00:00)

DMSP B5D2-2 - Pass Details

Date: 05 August 2024
Orbit: 787 x 802 km, 98.3° (Epoch: 08 September)

Event Time Altitude Azimuth Distance (km) Brightness Sun altitude
Rises 12:06:12 0° 178° (S) 3,277 7.0 -11.6°
Reaches altitude 10° 12:08:34 10° 183° (S) 2,349 6.2 -11.2°
Maximum altitude 12:13:38 53° 260° (W) 965 4.2 -10.3°
Drops below altitude 10° 12:18:43 10° 337° (NNW) 2,357 6.6 -9.4°
Sets 12:21:06 0° 342° (NNW) 3,288 7.4 -9.0°
